sat.trackr.live / text

‹ back to catalog

KUIPER-00199

NORAD 67771 · 2026-030H

PAYLOAD ACTIVE UNKNOWN

§ Identity

Operator
Country
US
Launch date
2026-02-12
Launch site
FRGUI
Launch vehicle
Mass (kg)
RCS (m²)

External: N2YO · Heavens-Above · Gunter

§ Orbital elements

Epoch: 2026-05-25T04:53:32.157888Z

Period
93.79 min
Inclination
51.8795°
Eccentricity
0.0011304
Mean motion
15.35365365 rev/d
Perigee alt
452.1 km
Apogee alt
467.6 km
Semi-major
6,838.0 km
B*
5.7521e-4
RAAN
210.6674°
Arg perigee
338.0757°
Mean anomaly
21.9744°
Rev number
1,684

§ Raw data

KUIPER-001991 67771U 26030H   26145.20384442  .00019766  00000+0  57521-3 0  99952 67771  51.8795 210.6674 0011304 338.0757  21.9744 15.35365365 16841

JSON: /api/v1/satellites/67771 · /tle

For live sub-satellite position, see the globe view (requires WebGL).

§ Visibility from observer

Set your observer location to see the next 7 days of passes ≥ 10°. The values pass through the URL so the page stays shareable.

No JS? Fill the form by hand. The geolocation button needs JavaScript.